Atlanta, GA

4:50 PM EST on December 06, 2019 (GMT -0500)
The Hartsfield Atlanta International

Weather History for KATL - October, 2019

Change the Weather History Date:

Sunday, October 13, 2019

  Actual Average Record
Temperature  
Mean Temperature 63 °F 64 °F  
Max Temperature 66 °F 73 °F 86 °F (1954)
Min Temperature 60 °F 55 °F 37 °F (1917)
Degree Days  
Heating Degree Days 2 3  
Month to date heating degree days 2 27  
Since 1 July heating degree days 2 38  
Cooling Degree Days 0 2  
Month to date cooling degree days 144 42  
Year to date cooling degree days 2621 1847  
Growing Degree Days 13 (Base 50)    
Moisture  
Dew Point 59 °F    
Average Humidity 85    
Maximum Humidity 93    
Minimum Humidity 70    
Precipitation  
Precipitation 0.17 in 0.11 in 2.66 in (1982)
Month to date precipitation 0.17 1.60  
Year to date precipitation 32.50 39.90  
Sea Level Pressure  
Sea Level Pressure 30.06 in    
Wind  
Wind Speed 5 mph ()    
Max Wind Speed 16 mph    
Max Gust Speed 20 mph    
Visibility 8.2 miles    
Events Rain    
T = Trace of Precipitation, MM = Missing Value Source: Averaged Metar Reports

Daily Weather History Graph

Daily Weather History Graph

Search for Another Location

Airport or City:

Astronomy

Oct. 13, 2019 Rise Set
Actual Time 7:40 AM EDT 7:06 PM EDT
Civil Twilight 7:15 AM EDT 7:31 PM EDT
Nautical Twilight 6:46 AM EDT 8:00 PM EDT
Astronomical Twilight 6:18 AM EDT 8:29 PM EDT
Moon 7:26 PM EDT (10/13) 7:18 AM EDT (10/13)
Length of Visible Light 12h 15m
Length of Day
11h 25m
Full, 100% of the Moon is Illuminated
Oct 13
Full
Oct 13
Full
Oct 21
Last Quarter
Oct 27
New
Nov 4
First Quarter

Hourly Weather History & Observations

Time (EDT) Temp. Dew Point Humidity Pressure Visibility Wind Dir Wind Speed Gust Speed Precip Events Conditions
12:52 AM 64.9 °F 55.9 °F 73% 30.02 in 8.0 mi NW 6.9 mph - 0.00 in Rain Light Rain
1:52 AM 64.9 °F 55.9 °F 73% 30.01 in 10.0 mi North 3.5 mph - 0.00 in Rain Light Rain
2:52 AM 64.0 °F 54.0 °F 70% 29.99 in 10.0 mi Calm Calm - 0.02 in   Overcast
3:52 AM 64.0 °F 55.9 °F 75% 29.99 in 10.0 mi Calm Calm - N/A   Overcast
4:52 AM 64.0 °F 57.0 °F 78% 29.99 in 10.0 mi SW 3.5 mph - N/A   Overcast
5:52 AM 64.0 °F 57.0 °F 78% 30.00 in 10.0 mi Calm Calm - N/A   Mostly Cloudy
6:52 AM 64.0 °F 57.0 °F 78% 30.01 in 10.0 mi WNW 4.6 mph - N/A   Mostly Cloudy
7:52 AM 63.0 °F 57.0 °F 81% 30.02 in 10.0 mi WNW 4.6 mph - 0.00 in   Mostly Cloudy
8:52 AM 63.0 °F 55.0 °F 75% 30.04 in 10.0 mi NW 6.9 mph - N/A   Overcast
9:16 AM 63.0 °F 55.9 °F 78% 30.07 in 10.0 mi NW 8.1 mph - N/A   Overcast
9:52 AM 62.1 °F 57.9 °F 86% 30.06 in 10.0 mi NNW 9.2 mph - 0.00 in   Overcast
10:37 AM 62.1 °F 57.9 °F 86% 30.09 in 5.0 mi NNW 5.8 mph - 0.01 in Rain Light Rain
10:52 AM 62.1 °F 57.9 °F 86% 30.08 in 3.0 mi NW 4.6 mph - 0.01 in Rain Rain
10:59 AM 62.1 °F 57.9 °F 86% 30.09 in 2.0 mi NW 3.5 mph - 0.03 in Rain Heavy Rain
11:20 AM 62.1 °F 59.0 °F 90% 30.09 in 5.0 mi West 3.5 mph - 0.10 in Rain Light Rain
11:39 AM 63.0 °F 59.0 °F 87% 30.08 in 7.0 mi NNW 3.5 mph - 0.10 in   Mostly Cloudy
11:52 AM 64.0 °F 60.1 °F 87% 30.07 in 10.0 mi NNW 5.8 mph - 0.10 in   Overcast
11:58 AM 64.0 °F 60.1 °F 87% 30.08 in 10.0 mi NNW 3.5 mph - N/A   Overcast
12:40 PM 64.9 °F 61.0 °F 87% 30.07 in 3.0 mi WNW 4.6 mph - 0.00 in Rain Light Rain
12:52 PM 64.0 °F 61.0 °F 90% 30.06 in 5.0 mi NW 8.1 mph - 0.00 in   Overcast
1:16 PM 64.0 °F 61.0 °F 90% 30.07 in 8.0 mi North 8.1 mph - N/A   Overcast
1:32 PM 63.0 °F 60.1 °F 90% 30.07 in 5.0 mi NW 9.2 mph - N/A   Overcast
1:40 PM 63.0 °F 60.1 °F 90% 30.06 in 2.5 mi NNW 6.9 mph - 0.00 in Rain Light Rain
1:52 PM 63.0 °F 61.0 °F 93% 30.05 in 3.0 mi WNW 8.1 mph - 0.00 in Rain Light Rain
2:52 PM 64.0 °F 61.0 °F 90% 30.05 in 8.0 mi West 5.8 mph - 0.01 in   Overcast
3:13 PM 64.0 °F 60.1 °F 87% 30.06 in 7.0 mi WNW 4.6 mph - N/A   Overcast
3:52 PM 64.0 °F 61.0 °F 90% 30.05 in 10.0 mi WNW 8.1 mph - N/A   Overcast
4:52 PM 64.9 °F 61.0 °F 87% 30.04 in 10.0 mi SW 3.5 mph - N/A   Overcast
5:04 PM 64.9 °F 60.1 °F 84% 30.06 in 10.0 mi SW 5.8 mph - N/A   Overcast
5:52 PM 64.9 °F 60.1 °F 84% 30.04 in 10.0 mi WNW 5.8 mph - N/A   Overcast
6:52 PM 64.9 °F 61.0 °F 87% 30.04 in 10.0 mi West 4.6 mph - 0.00 in Rain Light Rain
7:52 PM 64.9 °F 62.1 °F 90% 30.05 in 10.0 mi SW 4.6 mph - 0.01 in Rain Light Rain
8:52 PM 64.0 °F 61.0 °F 90% 30.07 in 10.0 mi WNW 10.4 mph - 0.01 in Rain Light Rain
9:03 PM 64.0 °F 61.0 °F 90% 30.11 in 7.0 mi WNW 16.1 mph 19.6 mph 0.01 in Rain Light Rain
9:13 PM 64.0 °F 60.1 °F 87% 30.10 in 10.0 mi WNW 13.8 mph - 0.01 in Rain Light Rain
9:19 PM 63.0 °F 59.0 °F 87% 30.10 in 10.0 mi WNW 12.7 mph - 0.01 in Rain Light Rain
9:38 PM 63.0 °F 57.0 °F 81% 30.08 in 10.0 mi SW 6.9 mph - 0.01 in Rain Light Rain
9:52 PM 63.0 °F 57.0 °F 81% 30.06 in 10.0 mi SW 5.8 mph - 0.01 in   Overcast
10:52 PM 62.1 °F 57.0 °F 84% 30.07 in 10.0 mi NW 9.2 mph - 0.00 in Rain Light Rain
11:52 PM 61.0 °F 57.0 °F 87% 30.07 in 10.0 mi West 6.9 mph - 0.00 in   Mostly Cloudy